Location: Zagreb
(45.8000°N, 16.0000°E)
Time: 14:45:23
(UTC+02:00)

Vanguard 1 - Pass Details

Date: 15 August 2022
Orbit: 649 x 3832 km, 34.2° (Epoch: 25 September)

Event Time Altitude Azimuth Distance (km) Brightness Sun altitude
Rises 07:23:05 0° 265° (W) 6,319 13.5 13.9°
Reaches altitude 10° 07:26:45 10° 261° (W) 5,647 13.4 14.5°
Maximum altitude 07:45:10 58° 189° (S) 4,096 13.4 17.7°
Drops below altitude 10° 08:07:35 10° 119° (ESE) 6,691 15.6 21.6°
Sets 08:12:27 0° 116° (ESE) 7,492 15.7 22.5°
